Regional Weather Roundup
Issued by NWS

Home | Current Version | Previous Version | Graphics & Text | Print | Product List | Glossary On
Versions: 1 2 3 4 5 6 7 8 9 10 11 12 13 14 15 16 17 18 19 20 21 22 23 24 25 26 27 28 29 30 31
000
ASUS45 KGTF 190610
RWRMT
MONTANA HOURLY WEATHER ROUNDUP
NATIONAL WEATHER SERVICE GREAT FALLS MT
1200 AM MDT SUN APR 19 2015

NOTE: "FAIR" INDICATES FEW OR NO CLOUDS BELOW 12000 FEET WITH NO
SIGNIFICANT WEATHER AND/OR OBSTRUCTIONS TO VISIBILITY.

MTZ001>007-043-190700-
WEST OF THE DIVIDE

CITY           SKY/WX    TMP DP  RH WIND       PRES   REMARKS
KALISPELL      CLEAR     46  28  49 N17       30.15R
MISSOULA       CLEAR     48  27  44 E17       30.17R
BUTTE          CLEAR     34  24  67 NW5       30.23R
DEER LODGE       N/A     36  23  60 NW7       30.29S WCI  30
EUREKA           N/A     39  25  56 CALM      30.17S
HAMILTON         N/A     46  23  39 S6        30.15S
LIBBY            N/A     43  27  52 CALM      30.17R
$$

MTZ008-052>055-190700-
SOUTHWEST MONTANA

CITY           SKY/WX    TMP DP  RH WIND       PRES   REMARKS
BOZEMAN        CLEAR     36  25  64 W7        30.25R WCI  30
DILLON         CLEAR     35  26  69 NE15      30.19R WCI  25
$$

MTZ009-010-012-014-046-048-049-054-190700-
EAST SLOPES AND CENTRAL MONTANA

CITY           SKY/WX    TMP DP  RH WIND       PRES   REMARKS
CUT BANK       CLEAR     30  23  75 N9        30.27S WCI  22
GREAT FALLS    CLOUDY    38  31  76 W5        30.27S
MALMSTROM AFB  MOCLDY    40  28  63 N3        30.27F
HELENA         CLOUDY    39  27  62 SW8       30.27S
$$

MTZ011-013-016-021-045-047-050-051-190700-
NORTH CENTRAL MONTANA

CITY           SKY/WX    TMP DP  RH WIND       PRES   REMARKS
HAVRE          CLEAR     28  19  69 W6        30.25S WCI  22
LEWISTOWN      CLOUDY    33  28  81 SW10      30.25R WCI  25
FORT BENTON      N/A     41  25  52 CALM      30.28S
$$

MTZ017>020-022>042-056>058-061-062-190700-
EASTERN PLAINS

CITY           SKY/WX    TMP DP  RH WIND       PRES   REMARKS
BAKER          CLEAR     40  24  53 NW15      30.08R
BILLINGS       CLEAR     36  27  69 NW12      30.25R WCI  28
GLASGOW        CLEAR     35  21  56 NW7       30.14R WCI  29
JORDAN           N/A     40  19  43 NW12      30.17R
LIVINGSTON     PTCLDY    32  24  72 NE6       30.23F WCI  26
MILES CITY     MOCLDY    39  20  46 NW14      30.15R WCI  31
SIDNEY         CLEAR     36  25  64 W12       30.07S WCI  27
WOLF POINT     CLEAR     34  22  61 NW6       30.11S WCI  29
BIG TIMBER       N/A     36  25  64 CALM      30.27S
FORSYTH          N/A     43  21  42 W8        30.18S
PLENTYWOOD       N/A     34  25  69 W9        30.04S WCI  26
POPLAR           N/A     37  23  56 NW8       30.10R WCI  31
$$

REGIONAL REPORTS...DAKOTAS

CITY           SKY/WX    TMP DP  RH WIND       PRES   REMARKS
WILLISTON      CLEAR     39  26  59 NW10      30.03S
MINOT          CLOUDY    44  35  70 NW18G29   29.93R
DICKINSON      CLOUDY    44  31  60 NW15      29.99R
BEACH          FAIR      36  25  64 NW9       30.07S WCI  29
CROSBY         FAIR      37  28  70 W9        30.00S WCI  31
WATFORD CITY   FAIR      39  27  60 W6        30.01S
BISMARCK       LGT RAIN  47  44  90 N21G31    29.92R
GRAND FORKS    CLOUDY    59  31  34 SE8       29.79F
FARGO          CLOUDY    58  47  66 S13       29.81S
BUFFALO SD       N/A     46  31  55 NW22      29.96S
RAPID CITY     CLOUDY    45  39  79 N23G32    29.98R
$$

REGIONAL REPORTS...WYOMING/IDAHO/WASHINGTON

CITY           SKY/WX    TMP DP  RH WIND       PRES   REMARKS
GILLETTE       CLEAR     37  30  75 NW17      30.13R WCI  27
SHERIDAN       MOCLDY    38  28  67 NW12      30.21S WCI  30
BUFFALO WY     PTCLDY    38  25  59 NW23      30.18R WCI  27
CODY           CLOUDY    36  30  80 NW7       30.25S WCI  30
YELLOWSTONE LA   N/A     28  18  66 N3        30.21S
IDAHO FALLS    CLEAR     48  26  42 NE15      30.10R
SALMON         CLEAR     46  25  42 N3        30.12R
BOISE          CLEAR     57  23  26 W15       30.06S
SPOKANE        CLEAR     49  26  41 SW7       30.16S
$$

REGIONAL REPORTS...ALBERTA

CITY           SKY/WX    TMP DP  RH WIND       PRES   REMARKS
EDMONTON       CLEAR     36  18  48 NW5       30.26S
CALGARY        MOCLDY    36  18  48 NW3       30.29R
LETHBRIDGE     CLEAR     28  23  80 S5        30.28S
MEDICINE HAT   CLEAR     37  21  52 N5        30.25R
$$

REGIONAL REPORTS...SASKATCHEWAN

CITY           SKY/WX    TMP DP  RH WIND       PRES   REMARKS
SWIFT CURRENT  CLOUDY    37  28  70 NW16G22   30.12S WCI  28
REGINA         CLOUDY    43  34  70 NW17      29.99F
SASKATOON      MOCLDY    41  34  75 N20       30.08R
$$



USA.gov is the U.S. government's official web portal to all federal, state and local government web resources and services.